User: anonymous   Login
Location: Ariel
(45.9570°N, 122.5700°W)
Time: 23:09:02
(UTC-07:00)
Language:

FO-29 - Orbit

View from above orbital plane
View from above orbital plane
View from above satellite
View from above satellite

Ground track
Ground track

The orbit data is extracted from the following two-line orbital elements,

1 24278U 96046B   19285.86359477 -.00000023  00000-0  16169-4 0  9995
2 24278  98.5554  63.6034 0349383 298.9280  57.7237 13.53093688143512
Epoch (UTC): 12 October 2019 20:43:34
Eccentricity: 0.0349383
inclination: 98.5554°
perigee height: 801 km
apogee height: 1321 km
right ascension of ascending node: 63.6034°
argument of perigee: 298.9280°
revolutions per day: 13.53093688
mean anomaly at epoch: 57.7237°
orbit number at epoch: 14351

The dashed part of the orbit path shows where the satellite is in the earth's shadow,  

DLR